Location: White Mills Observatory
(37.5374°N, 86.0303°W)
Time: 10:14:25
(UTC-05:00)

Amateur Radio Satellites - All Passes

Search period start: 13 February 2016 09:44
Search period end: 14 February 2016 09:44
Location: White Mills Observatory, 37.5374°N, 86.0303°W

Satellite Date Start Highest point End Downlink Frequencies (MHz)
Time Altitude Azimuth
TIGRISAT 13 Feb 09:45:41 09:49:19 27° 70° (ENE) 09:52:56 435.000
Oscar 11 13 Feb 09:45:55 09:50:04 43° 99° (E) 09:54:13 145.826/435.025
Cosmos 2499 13 Feb 10:01:12 10:09:52 73° 94° (E) 10:18:44 435.465 / 435.565
UWE-3 13 Feb 10:02:09 10:06:25 77° 102° (ESE) 10:10:45 435.000/436.395/437.385
QB50P2 13 Feb 10:02:41 10:03:32 11° 64° (ENE) 10:04:23 145.880/145.840
POLYITAN 1 13 Feb 10:03:00 10:03:06 10° 64° (ENE) 10:03:12 437.675
CUBEBUG 2 13 Feb 10:09:33 10:13:43 61° 285° (WNW) 10:17:59 437.445
AO-85 13 Feb 10:18:05 10:23:23 70° 302° (WNW) 10:28:53 145.980
DELFI C3 13 Feb 10:26:51 10:30:54 71° 102° (ESE) 10:34:56 145.870
CANX-2 13 Feb 10:27:48 10:28:46 11° 296° (WNW) 10:29:44 2200.000
POPSAT HIP 1 13 Feb 10:28:55 10:32:02 20° 68° (ENE) 10:35:09 437.405
CINEMA 3 13 Feb 10:30:18 10:32:13 13° 294° (WNW) 10:34:09 145.822/145.860
DUCHIFAT 1 13 Feb 10:30:55 10:33:59 20° 68° (ENE) 10:37:02 145.980
UNISAT 6 13 Feb 10:31:00 10:35:19 81° 260° (W) 10:39:35 437.425
NANOSAT C BR1 13 Feb 10:31:07 10:34:17 21° 69° (ENE) 10:37:27 145.865
HUMSAT D 13 Feb 10:33:46 10:37:32 32° 97° (E) 10:41:21 437.325/437.525
QB50P1 13 Feb 10:40:38 10:44:14 28° 70° (ENE) 10:47:50 145.935-145.965
ZACube-1 13 Feb 10:47:44 10:51:48 45° 286° (WNW) 10:55:55 437.345
HO-68 13 Feb 10:53:38 10:58:38 21° 301° (WNW) 11:03:39 435.675
FUNcube-1 13 Feb 10:54:51 10:58:48 39° 287° (WNW) 11:02:50 145.935
COMPASS 1 13 Feb 10:56:44 10:57:04 10° 296° (WNW) 10:57:23 437.405
AIST 1 13 Feb 11:01:59 11:06:21 67° 278° (W) 11:10:45
PCSat 13 Feb 11:08:55 11:14:09 50° 301° (WNW) 11:19:27 145.827
VELOX 1 13 Feb 11:13:06 11:15:44 15° 93° (E) 11:18:22 145.980
BUGSAT 1 13 Feb 11:15:17 11:19:01 32° 72° (ENE) 11:22:45 437.445
ANTELSAT 13 Feb 11:16:56 11:20:26 24° 264° (W) 11:23:55 437.575/2403.000
SRMSAT 13 Feb 11:21:26 11:24:10 13° 181° (S) 11:26:53 437.500
UKube-1 13 Feb 11:21:42 11:24:33 17° 94° (E) 11:27:24 .
TIGRISAT 13 Feb 11:22:39 11:25:59 22° 265° (W) 11:29:19 435.000
Oscar 11 13 Feb 11:23:14 11:25:50 16° 294° (WNW) 11:28:24 145.826/435.025
GONETS M04 13 Feb 11:24:22 11:29:40 17° 296° (WNW) 11:35:01
50 SAT 13 Feb 11:28:25 11:31:43 27° 97° (E) 11:35:01 437.505
AISAT 13 Feb 11:29:39 11:33:17 25° 96° (E) 11:36:55 437.250
POLYITAN 1 13 Feb 11:34:09 11:38:20 66° 258° (WSW) 11:42:33 437.675
QB50P2 13 Feb 11:34:36 11:38:48 63° 259° (W) 11:43:00 145.880/145.840
RS-15 13 Feb 11:37:08 11:48:11 82° 117° (ESE) 11:59:54 29.354- 29.394
CUBEBUG 1 13 Feb 11:38:06 11:41:42 25° 96° (E) 11:45:16 437.445
DX 1 13 Feb 11:39:47 11:43:43 33° 98° (E) 11:47:38 434.975-435.025
Oscar 19 13 Feb 11:50:19 11:50:38 10° 60° (ENE) 11:50:56 437.125/150
Cosmos 2499 13 Feb 11:57:05 12:03:47 24° 292° (WNW) 12:10:34 435.465 / 435.565
AO-85 13 Feb 12:02:24 12:04:55 13° 321° (NW) 12:07:27 145.980
POPSAT HIP 1 13 Feb 12:03:54 12:07:38 30° 263° (W) 12:11:22 437.405
DUCHIFAT 1 13 Feb 12:05:46 12:09:29 30° 263° (W) 12:13:13 145.980
NANOSAT C BR1 13 Feb 12:06:11 12:09:51 29° 263° (W) 12:13:32 145.865
ESTCUBE 1 13 Feb 12:06:23 12:10:56 76° 101° (E) 12:15:27 437.505/2401.250
HUMSAT D 13 Feb 12:10:00 12:12:57 19° 292° (WNW) 12:15:55 437.325/437.525
SO-50 13 Feb 12:11:30 12:14:09 14° 42° (NE) 12:16:43 436.795
QB50P1 13 Feb 12:16:43 12:19:59 21° 265° (W) 12:23:15 145.935-145.965
JAS-2 13 Feb 12:25:17 12:31:09 26° 65° (ENE) 12:36:35 435.910
DANDE 13 Feb 12:27:01 12:31:54 22° 64° (ENE) 12:35:53 436.750
VELOX 1 13 Feb 12:48:14 12:52:23 41° 288° (WNW) 12:56:30 145.980
Gurwin Techsat 1B 13 Feb 12:49:52 12:52:52 15° 63° (ENE) 12:55:52 435.225
BUGSAT 1 13 Feb 12:51:36 12:54:27 18° 266° (W) 12:57:19 437.445
TISAT 1 13 Feb 12:53:39 12:56:51 21° 95° (E) 13:00:03 437.305
UKube-1 13 Feb 12:56:45 13:00:43 36° 289° (WNW) 13:04:39 .
SPROUT 13 Feb 12:58:56 13:03:11 76° 102° (ESE) 13:07:26 437.525
CUSAT 1 13 Feb 13:02:48 13:08:03 86° 81° (E) 13:11:56 437.405
50 SAT 13 Feb 13:02:56 13:05:31 18° 291° (WNW) 13:08:06 437.505
AISAT 13 Feb 13:06:04 13:09:42 26° 291° (WNW) 13:13:19 437.250
ITAMSAT 1 13 Feb 13:06:51 13:08:04 11° 60° (ENE) 13:09:16 435.822/435.867
CUBEBUG 1 13 Feb 13:14:20 13:17:53 25° 291° (WNW) 13:21:26 437.445
DX 1 13 Feb 13:16:33 13:19:41 20° 293° (WNW) 13:22:47 434.975-435.025
Oscar 19 13 Feb 13:23:56 13:29:08 87° 74° (ENE) 13:34:20 437.125/150
ESTCUBE 1 13 Feb 13:46:50 13:47:04 10° 298° (WNW) 13:47:18 437.505/2401.250
ITUPSAT 1 13 Feb 13:48:54 13:51:49 16° 93° (E) 13:54:42 437.325
SO-50 13 Feb 13:50:27 13:55:16 80° 241° (WSW) 13:59:52 436.795
RS-15 13 Feb 13:52:17 14:02:02 32° 322° (NW) 14:12:17 29.354- 29.394
BEESAT 13 Feb 13:54:20 13:57:42 19° 94° (E) 14:01:00 436.000
AO-7 13 Feb 14:07:43 14:14:04 25° 56° (ENE) 14:20:24 29.400- 29.500
JAS-2 13 Feb 14:08:13 14:15:44 60° 259° (W) 14:22:37 435.910
DANDE 13 Feb 14:09:22 14:15:18 42° 271° (W) 14:19:47 436.750
YUBILEINY 13 Feb 14:09:56 14:18:28 50° 77° (ENE) 14:26:53 435.215
Cosmos 2491 13 Feb 14:15:45 14:22:46 28° 83° (E) 14:29:46 435.465 / 435.565
ISS 13 Feb 14:22:56 14:26:02 43° 135° (SE) 14:29:08 145.825
Gurwin Techsat 1B 13 Feb 14:26:58 14:32:14 65° 258° (WSW) 14:37:31 435.225
TISAT 1 13 Feb 14:28:58 14:32:30 27° 290° (WNW) 14:36:00 437.305
ITAMSAT 1 13 Feb 14:41:32 14:46:44 89° 264° (W) 14:51:58 435.822/435.867
SWISSCUBE 13 Feb 14:46:04 14:50:54 74° 102° (ESE) 14:55:41 437.505
Cosmos 2504 13 Feb 15:08:12 15:14:46 24° 68° (ENE) 15:20:58 435.465 / 435.565
M-CUBED/EXP-1 PRIME 13 Feb 15:20:03 15:22:52 23° 67° (ENE) 15:25:36 437.505
ITUPSAT 1 13 Feb 15:25:15 15:29:53 49° 288° (WNW) 15:34:31 437.325
AUBIESAT-1 13 Feb 15:26:12 15:28:58 22° 66° (ENE) 15:31:39 437.475
BEESAT 13 Feb 15:31:07 15:35:37 41° 289° (WNW) 15:40:06 436.000
STARS 13 Feb 15:38:15 15:40:53 16° 93° (E) 15:43:30 437.465
BEESAT 3 13 Feb 15:45:11 15:48:04 19° 111° (ESE) 15:50:57 437.485
AO-7 13 Feb 15:57:41 16:06:02 73° 254° (WSW) 16:14:25 29.400- 29.500
ISS 13 Feb 16:00:04 16:02:37 21° 332° (NNW) 16:05:09 145.825
KKS-1 13 Feb 16:04:47 16:09:11 62° 101° (ESE) 16:13:33 437.445
YUBILEINY 13 Feb 16:07:18 16:14:51 33° 275° (W) 16:22:23 435.215
Cosmos 2491 13 Feb 16:10:30 16:19:00 57° 281° (WNW) 16:27:33 435.465 / 435.565
RS-15 13 Feb 16:13:14 16:20:04 16° 357° (N) 16:27:04 29.354- 29.394
BEESAT 2 13 Feb 16:16:14 16:19:38 27° 113° (ESE) 16:23:05 435.950
O/OREOS (USA 219) 13 Feb 16:24:21 16:26:02 12° 54° (NE) 16:27:42 437.305
SWISSCUBE 13 Feb 16:26:28 16:28:02 11° 298° (WNW) 16:29:37 437.505
MOZHAYETS 4 13 Feb 16:27:54 16:32:21 43° 99° (E) 16:36:45
HORYU 2 13 Feb 16:28:00 16:32:24 87° 254° (WSW) 16:36:51 437.375
CUTE-I 13 Feb 16:52:07 16:54:46 14° 61° (ENE) 16:57:26 437.470
M-CUBED/EXP-1 PRIME 13 Feb 16:54:59 16:57:28 18° 259° (WSW) 16:59:53 437.505
Cosmos 2504 13 Feb 17:00:29 17:08:52 65° 268° (W) 17:16:36 435.465 / 435.565
AUBIESAT-1 13 Feb 17:00:58 17:03:30 18° 259° (WSW) 17:05:58 437.475
Cubesat XI-IV 13 Feb 17:06:00 17:09:40 19° 64° (ENE) 17:13:20 437.490
STARS 13 Feb 17:13:19 17:17:25 41° 288° (WNW) 17:21:29 437.465
AO-85 13 Feb 17:14:48 17:15:52 11° 36° (NE) 17:16:56 145.980
CUBESAT XI-V 13 Feb 17:21:15 17:24:03 16° 92° (E) 17:26:48 437.345
BEESAT 3 13 Feb 17:22:01 17:25:36 31° 306° (NW) 17:29:12 437.485
LilacSat-2 13 Feb 17:27:38 17:30:10 17° 69° (ENE) 17:32:44 437.200
KKS-1 13 Feb 17:43:39 17:45:12 12° 297° (WNW) 17:46:45 437.445
BRITE-PL 13 Feb 17:45:27 17:49:59 25° 68° (ENE) 17:54:23 437.365/2234.400
BEESAT 2 13 Feb 17:54:12 17:57:30 24° 309° (NW) 18:00:48 435.950
AO-7 13 Feb 17:57:31 18:00:00 11° 271° (W) 18:02:31 29.400- 29.500
O/OREOS (USA 219) 13 Feb 18:01:21 18:05:57 71° 251° (WSW) 18:10:31 437.305
MOZHAYETS 4 13 Feb 18:06:06 18:09:09 18° 294° (WNW) 18:12:11
PCSat 13 Feb 18:17:08 18:19:44 13° 44° (NE) 18:22:19 145.827
RS-15 13 Feb 18:28:45 18:38:39 28° 33° (NNE) 18:48:41 29.354- 29.394
CUTE-I 13 Feb 18:28:50 18:34:09 73° 258° (WSW) 18:39:30 437.470
GOMX 1 13 Feb 18:29:38 18:34:20 33° 71° (ENE) 18:38:51 467.674
AIST 2 13 Feb 18:43:24 18:47:33 71° 301° (WNW) 18:51:44 435.215
Cubesat XI-IV 13 Feb 18:44:07 18:49:17 52° 260° (W) 18:54:31 437.490
AO-85 13 Feb 18:52:28 18:57:33 62° 57° (ENE) 19:02:09 145.980
CUBESAT XI-V 13 Feb 18:57:09 19:01:39 46° 287° (WNW) 19:06:06 437.345
LilacSat-2 13 Feb 19:01:00 19:04:17 28° 263° (W) 19:07:35 437.200
BRITE-PL 13 Feb 19:22:49 19:28:10 42° 262° (W) 19:33:23 437.365/2234.400
DOVE 4 13 Feb 19:27:07 19:32:06 62° 75° (ENE) 19:36:49 437.250
HO-68 13 Feb 19:30:48 19:37:31 45° 67° (ENE) 19:44:16 435.675
GONETS M04 13 Feb 19:35:55 19:44:07 41° 75° (ENE) 19:52:16
CANX-2 13 Feb 19:40:11 19:43:59 34° 72° (ENE) 19:47:49 2200.000
STRAND 1 13 Feb 19:41:45 19:46:50 55° 101° (E) 19:51:53 437.568
CINEMA 3 13 Feb 19:51:08 19:55:17 35° 72° (ENE) 19:59:16 145.822/145.860
Cosmos 2499 13 Feb 19:57:02 20:03:09 22° 67° (ENE) 20:08:54 435.465 / 435.565
PCSat 13 Feb 19:58:29 20:03:57 85° 62° (ENE) 20:09:22 145.827
COMPASS 1 13 Feb 20:06:54 20:10:37 33° 72° (ENE) 20:14:22 437.405
GOMX 1 13 Feb 20:07:46 20:12:21 28° 264° (W) 20:16:46 467.674
PRISM 13 Feb 20:15:30 20:19:20 35° 98° (E) 20:23:08 437.425
SEEDS 13 Feb 20:28:19 20:32:29 84° 80° (E) 20:36:43 437.485
CUTE 1.7 + AOD 2 13 Feb 20:29:36 20:33:47 69° 259° (W) 20:38:01 437.475
AAUSAT CUBESAT 2 13 Feb 20:31:03 20:35:04 52° 74° (ENE) 20:39:07 437.432
AO-85 13 Feb 20:34:56 20:37:20 14° 255° (WSW) 20:39:39 145.980
Oscar 11 13 Feb 20:39:04 20:42:38 26° 70° (ENE) 20:46:14 145.826/435.025
RS-15 13 Feb 20:41:02 20:53:19 81° 59° (ENE) 21:05:41 29.354- 29.394
ISS 13 Feb 20:52:22 20:55:13 27° 31° (NNE) 20:58:02 145.825
UWE-3 13 Feb 20:57:20 21:01:23 46° 74° (ENE) 21:05:23 435.000/436.395/437.385
CUBEBUG 2 13 Feb 21:05:32 21:09:50 85° 78° (ENE) 21:14:03 437.445
DOVE 4 13 Feb 21:07:50 21:10:03 13° 268° (W) 21:12:14 437.250
DELFI C3 13 Feb 21:11:25 21:14:55 30° 72° (ENE) 21:18:26 145.870
AIST 1 13 Feb 21:11:40 21:15:10 23° 75° (ENE) 21:18:38
CANX-2 13 Feb 21:17:08 21:19:56 17° 267° (W) 21:22:45 2200.000
HO-68 13 Feb 21:19:03 21:25:18 32° 263° (W) 21:31:37 435.675
STRAND 1 13 Feb 21:22:16 21:25:31 17° 296° (WNW) 21:28:45 437.568
HUMSAT D 13 Feb 21:24:14 21:26:58 18° 68° (ENE) 21:29:43 437.325/437.525
CINEMA 3 13 Feb 21:29:17 21:32:28 19° 265° (W) 21:35:36 145.822/145.860
GONETS M04 13 Feb 21:32:49 21:40:50 41° 273° (W) 21:48:51
ZACube-1 13 Feb 21:41:21 21:45:32 75° 259° (WSW) 21:49:41 437.345
COMPASS 1 13 Feb 21:43:29 21:46:16 17° 267° (W) 21:49:04 437.405
PCSat 13 Feb 21:45:17 21:46:32 11° 258° (WSW) 21:47:47 145.827
FUNcube-1 13 Feb 21:48:08 21:52:17 65° 259° (W) 21:56:25 145.935
Cosmos 2499 13 Feb 21:48:54 21:57:03 67° 268° (W) 22:04:32 435.465 / 435.565
PRISM 13 Feb 21:51:38 21:54:22 17° 293° (WNW) 21:57:06 437.425
50 SAT 13 Feb 22:09:06 22:10:02 11° 66° (ENE) 22:10:58 437.505
AAUSAT CUBESAT 2 13 Feb 22:09:46 22:10:52 11° 269° (W) 22:11:57 437.432
VELOX 1 13 Feb 22:09:52 22:11:35 12° 64° (ENE) 22:13:19 145.980
Oscar 11 13 Feb 22:15:15 22:18:42 24° 265° (W) 22:22:11 145.826/435.025
UKube-1 13 Feb 22:15:44 22:17:33 12° 64° (ENE) 22:19:21 .
UNISAT 6 13 Feb 22:24:58 22:28:30 23° 96° (E) 22:32:05 437.425
AISAT 13 Feb 22:25:45 22:28:54 19° 67° (ENE) 22:32:03 437.250
ISS 13 Feb 22:28:47 22:31:37 28° 227° (SW) 22:34:26 145.825
CUBEBUG 1 13 Feb 22:32:48 22:35:47 18° 67° (ENE) 22:38:46 437.445
DX 1 13 Feb 22:33:44 22:37:13 24° 68° (ENE) 22:40:44 434.975-435.025
UWE-3 13 Feb 22:36:20 22:38:05 12° 268° (W) 22:39:50 435.000/436.395/437.385
DELFI C3 13 Feb 22:47:12 22:49:52 17° 266° (W) 22:52:33 145.870
AIST 1 13 Feb 22:49:11 22:52:40 24° 271° (W) 22:56:07
RS-15 13 Feb 22:55:10 23:04:29 27° 258° (WSW) 23:13:50 29.354- 29.394
HUMSAT D 13 Feb 22:58:43 23:02:22 32° 263° (W) 23:06:02 437.325/437.525
ESTCUBE 1 13 Feb 23:03:45 23:08:09 54° 74° (ENE) 23:12:36 437.505/2401.250
ANTELSAT 13 Feb 23:09:13 23:13:37 76° 102° (ESE) 23:18:06 437.575/2403.000
PHONESAT 2.4 13 Feb 23:11:38 23:14:38 34° 152° (SSE) 23:17:39 2401.200-2431.200
TIGRISAT 13 Feb 23:14:33 23:18:57 83° 103° (ESE) 23:23:25 435.000
POLYITAN 1 13 Feb 23:21:43 23:25:02 22° 95° (E) 23:28:20 437.675
QB50P2 13 Feb 23:22:05 23:25:29 23° 96° (E) 23:28:51 145.880/145.840
50 SAT 13 Feb 23:40:04 23:43:36 44° 261° (W) 23:47:11 437.505
VELOX 1 13 Feb 23:43:07 23:47:31 61° 259° (WSW) 23:51:57 145.980
TISAT 1 13 Feb 23:44:48 23:46:53 14° 65° (ENE) 23:48:57 437.305
UKube-1 13 Feb 23:48:51 23:53:06 56° 259° (W) 23:57:23 .
POPSAT HIP 1 13 Feb 23:50:08 23:54:12 47° 100° (E) 23:58:15 437.405
SPROUT 13 Feb 23:50:36 23:54:40 44° 73° (ENE) 23:58:45 437.525
DUCHIFAT 1 13 Feb 23:51:25 23:55:26 45° 100° (E) 23:59:26 145.980
NANOSAT C BR1 13 Feb 23:51:59 23:56:04 48° 100° (E) 00:00:06 145.865
AISAT 14 Feb 00:00:59 00:05:06 36° 262° (W) 00:09:15 437.250
UNISAT 6 14 Feb 00:01:26 00:05:10 28° 290° (WNW) 00:08:58 437.425
QB50P1 14 Feb 00:02:15 00:06:27 68° 101° (ESE) 00:10:38 145.935-145.965
CUBEBUG 1 14 Feb 00:07:37 00:11:46 38° 262° (W) 00:15:55 437.445
DX 1 14 Feb 00:09:31 00:13:16 28° 263° (W) 00:17:03 434.975-435.025
CUSAT 1 14 Feb 00:20:40 00:26:01 20° 83° (E) 00:31:18 437.405
Cosmos 2491 14 Feb 00:30:29 00:33:01 11° 60° (ENE) 00:35:33 435.465 / 435.565
BUGSAT 1 14 Feb 00:33:53 00:37:55 74° 101° (E) 00:41:54 437.445
BEESAT 2 14 Feb 00:37:39 00:39:01 11° 44° (NE) 00:40:22 435.950
ESTCUBE 1 14 Feb 00:43:16 00:45:16 13° 269° (W) 00:47:17 437.505/2401.250
PHONESAT 2.4 14 Feb 00:48:31 00:51:47 64° 348° (NNW) 00:55:03 2401.200-2431.200
ITUPSAT 1 14 Feb 00:54:19 00:57:08 16° 64° (ENE) 00:59:57 437.325
POLYITAN 1 14 Feb 00:57:16 01:00:48 27° 290° (WNW) 01:04:20 437.675
QB50P2 14 Feb 00:57:44 01:01:13 26° 290° (WNW) 01:04:42 145.880/145.840
BEESAT 14 Feb 00:59:20 01:02:31 18° 65° (ENE) 01:05:43 436.000
TISAT 1 14 Feb 01:18:03 01:22:07 47° 260° (W) 01:26:12 437.305
JAS-2 14 Feb 01:22:22 01:25:44 17° 91° (E) 01:29:02 435.910
POPSAT HIP 1 14 Feb 01:27:31 01:29:34 13° 295° (WNW) 01:31:38 437.405
SPROUT 14 Feb 01:28:35 01:30:50 14° 268° (W) 01:33:06 437.525
DUCHIFAT 1 14 Feb 01:28:36 01:30:45 14° 294° (WNW) 01:32:53 145.980
DANDE 14 Feb 01:29:19 01:36:31 39° 88° (E) 01:44:10 436.750
NANOSAT C BR1 14 Feb 01:29:25 01:31:22 13° 295° (WNW) 01:33:19 145.865
Oscar 19 14 Feb 01:37:49 01:42:30 35° 98° (E) 01:47:09 437.125/150
BEESAT 3 14 Feb 01:40:53 01:44:52 77° 60° (ENE) 01:48:46 437.485
SWISSCUBE 14 Feb 01:50:27 01:55:10 68° 75° (ENE) 01:59:56 437.505
CUSAT 1 14 Feb 01:59:22 02:07:28 83° 279° (W) 02:15:24 437.405
BEESAT 2 14 Feb 02:13:24 02:17:23 72° 243° (WSW) 02:21:19 435.950
Cosmos 2491 14 Feb 02:22:55 02:31:39 68° 81° (E) 02:40:23 435.465 / 435.565
PHONESAT 2.4 14 Feb 02:26:04 02:29:16 49° 5° (N) 02:32:28 2401.200-2431.200
ITUPSAT 1 14 Feb 02:29:52 02:34:30 52° 260° (W) 02:39:12 437.325
STARS 14 Feb 02:34:28 02:36:05 12° 64° (ENE) 02:37:41 437.465
BEESAT 14 Feb 02:35:24 02:39:56 44° 261° (W) 02:44:31 436.000
Gurwin Techsat 1B 14 Feb 02:45:07 02:50:23 59° 101° (E) 02:55:37 435.225
ITAMSAT 1 14 Feb 02:56:35 03:01:28 38° 98° (E) 03:06:17 435.822/435.867
KKS-1 14 Feb 03:00:49 03:05:02 44° 72° (ENE) 03:09:17 437.445
JAS-2 14 Feb 03:06:00 03:11:15 49° 289° (WNW) 03:16:13 435.910
AIST 2 14 Feb 03:06:46 03:10:40 39° 55° (NE) 03:14:31 435.215
YUBILEINY 14 Feb 03:07:52 03:16:26 61° 91° (E) 03:25:04 435.215
DANDE 14 Feb 03:11:40 03:19:18 46° 286° (WNW) 03:27:24 436.750
Oscar 19 14 Feb 03:17:29 03:21:37 25° 293° (WNW) 03:25:43 437.125/150
MOZHAYETS 4 14 Feb 03:27:59 03:32:02 32° 71° (ENE) 03:36:07
SWISSCUBE 14 Feb 03:32:09 03:33:24 11° 269° (W) 03:34:39 437.505
Cosmos 2504 14 Feb 03:44:23 03:50:27 22° 80° (E) 03:56:37 435.465 / 435.565
CUSAT 1 14 Feb 03:45:45 03:50:40 17° 295° (WNW) 03:55:30 437.405
AO-7 14 Feb 04:01:46 04:09:37 44° 100° (E) 04:17:22 29.400- 29.500
SO-50 14 Feb 04:02:14 04:06:59 54° 116° (ESE) 04:11:48 436.795
PHONESAT 2.4 14 Feb 04:03:21 04:06:37 70° 201° (SSW) 04:09:51 2401.200-2431.200
STARS 14 Feb 04:07:34 04:11:55 60° 259° (W) 04:16:16 437.465
Cosmos 2491 14 Feb 04:21:13 04:27:38 23° 279° (W) 04:34:05 435.465 / 435.565
HORYU 2 14 Feb 04:21:41 04:25:01 20° 95° (E) 04:28:19 437.375
CUBESAT XI-V 14 Feb 04:23:37 04:25:48 13° 64° (ENE) 04:27:59 437.345
Gurwin Techsat 1B 14 Feb 04:26:31 04:29:48 17° 297° (WNW) 04:33:05 435.225
M-CUBED/EXP-1 PRIME 14 Feb 04:34:53 04:37:49 24° 103° (ESE) 04:40:54 437.505
ITAMSAT 1 14 Feb 04:36:32 04:40:41 25° 294° (WNW) 04:44:50 435.822/435.867
KKS-1 14 Feb 04:39:13 04:41:48 15° 267° (W) 04:44:24 437.445
AUBIESAT-1 14 Feb 04:40:29 04:43:24 23° 102° (ESE) 04:46:28 437.475
AIST 2 14 Feb 04:46:12 04:48:50 17° 250° (WSW) 04:51:27 435.215
MOZHAYETS 4 14 Feb 05:05:46 05:09:15 21° 266° (W) 05:12:45
YUBILEINY 14 Feb 05:06:34 05:13:45 27° 290° (WNW) 05:21:00 435.215
Cosmos 2504 14 Feb 05:34:10 05:42:48 76° 278° (W) 05:51:45 435.465 / 435.565
PHONESAT 2.4 14 Feb 05:41:39 05:43:28 14° 215° (SW) 05:45:16 2401.200-2431.200
SO-50 14 Feb 05:44:09 05:47:48 20° 314° (NW) 05:51:29 436.795
AO-7 14 Feb 05:54:41 06:02:14 40° 298° (WNW) 06:09:45 29.400- 29.500
HORYU 2 14 Feb 05:57:37 06:01:37 33° 290° (WNW) 06:05:36 437.375
CUBESAT XI-V 14 Feb 05:57:59 06:02:37 61° 259° (W) 06:07:19 437.345
M-CUBED/EXP-1 PRIME 14 Feb 06:09:48 06:12:20 19° 294° (WNW) 06:14:59 437.505
AUBIESAT-1 14 Feb 06:15:11 06:17:52 20° 294° (WNW) 06:20:39 437.475
O/OREOS (USA 219) 14 Feb 06:34:15 06:37:03 16° 99° (E) 06:39:50 437.305
LilacSat-2 14 Feb 06:36:01 06:39:26 32° 97° (E) 06:42:51 437.200
CUTE-I 14 Feb 06:47:55 06:53:11 53° 100° (E) 06:58:25 437.470
STRAND 1 14 Feb 06:55:35 07:00:38 65° 74° (ENE) 07:05:44 437.568
Cubesat XI-IV 14 Feb 07:03:06 07:08:31 75° 103° (ESE) 07:13:53 437.490
PRISM 14 Feb 07:03:43 07:06:49 21° 68° (ENE) 07:09:57 437.425
DOVE 4 14 Feb 07:29:30 07:32:06 16° 93° (E) 07:34:40 437.250
BRITE-PL 14 Feb 07:30:13 07:34:48 81° 102° (ESE) 07:39:03 437.365/2234.400
Cosmos 2504 14 Feb 07:33:25 07:37:46 14° 299° (WNW) 07:42:09 435.465 / 435.565
JUGNU 14 Feb 07:35:11 07:37:36 13° 174° (S) 07:40:02 437.505
LilacSat-2 14 Feb 08:11:16 08:13:29 15° 292° (WNW) 08:15:42 437.200
GOMX 1 14 Feb 08:11:19 08:15:36 73° 283° (WNW) 08:19:43 467.674
O/OREOS (USA 219) 14 Feb 08:11:50 08:16:03 40° 295° (WNW) 08:20:20 437.305
SEEDS 14 Feb 08:15:25 08:18:07 16° 93° (E) 08:20:48 437.485
CUTE 1.7 + AOD 2 14 Feb 08:17:03 08:20:30 23° 95° (E) 08:23:55 437.475
CUTE-I 14 Feb 08:29:08 08:32:46 19° 296° (WNW) 08:36:25 437.470
Cosmos 2499 14 Feb 08:31:26 08:37:17 20° 80° (E) 08:43:11 435.465 / 435.565
GONETS M04 14 Feb 08:34:21 08:42:34 50° 89° (E) 08:50:49
STRAND 1 14 Feb 08:37:55 08:40:13 13° 269° (W) 08:42:33 437.568
PRISM 14 Feb 08:38:20 08:41:57 29° 263° (W) 08:45:38 437.425
Cubesat XI-IV 14 Feb 08:45:17 08:47:54 14° 299° (WNW) 08:50:30 437.490
HO-68 14 Feb 08:47:40 08:54:45 56° 102° (ESE) 09:01:46 435.675
UWE-3 14 Feb 08:51:14 08:52:10 11° 91° (E) 08:53:07 435.000/436.395/437.385
PCSat 14 Feb 08:57:55 09:00:35 14° 103° (ESE) 09:03:15 145.827
CUBEBUG 2 14 Feb 08:58:53 09:02:00 19° 95° (E) 09:05:08 437.445
RS-15 14 Feb 09:01:31 09:02:31 10° 94° (E) 09:03:32 29.354- 29.394
CANX-2 14 Feb 09:02:20 09:06:39 88° 284° (WNW) 09:10:57 2200.000
AO-85 14 Feb 09:04:13 09:09:00 36° 112° (ESE) 09:13:59 145.980
DOVE 4 14 Feb 09:06:10 09:09:57 34° 288° (WNW) 09:13:41 437.250
SRMSAT 14 Feb 09:20:53 09:22:55 12° 172° (S) 09:24:56 437.500
UNISAT 6 14 Feb 09:23:01 09:25:43 16° 67° (ENE) 09:28:24 437.425
JUGNU 14 Feb 09:23:11 09:25:46 13° 185° (S) 09:28:19 437.505
CINEMA 3 14 Feb 09:24:10 09:28:19 68° 283° (WNW) 09:32:31 145.822/145.860
COMPASS 1 14 Feb 09:26:39 09:30:54 84° 102° (ESE) 09:35:08 437.405
ZACube-1 14 Feb 09:31:56 09:35:22 23° 96° (E) 09:38:50 437.345
